FW1375 Weather Reports


Display with metric or nautical units.
time (UTC)temp
F
wind
direction
speed
MPH
gust
MPH
rain 1hr
in
rain 24hr
in
rain mn
in
humidity
%
barometer
mb
20240301134600 35 59 3.0 8.0 0.00 0.00 0.00 60 1009.9
20240301133058 35 73 3.0 9.0 0.00 0.00 0.00 59 1010.1
20240301131600 34 158 3.0 8.0 0.00 0.00 0.00 58 1010.1
20240301130125 34 86 3.0 9.0 0.00 0.00 0.00 57 1010.1
20240301124551 35 142 2.0 10.0 0.00 0.00 0.00 56 1009.9
20240301123049 35 100 2.0 11.0 0.00 0.00 0.00 55 1010.0
20240301121546 35 79 3.0 9.0 0.00 0.00 0.00 54 1010.0
20240301120043 35 183 3.0 10.0 0.00 0.00 0.00 52 1010.3
20240301114541 35 72 2.0 10.0 0.00 0.00 0.00 51 1010.4
20240301113041 36 105 2.0 9.0 0.00 0.00 0.00 50 1010.4
20240301111545 36 139 4.0 8.0 0.00 0.00 0.00 49 1010.4
20240301110043 36 47 4.0 12.0 0.00 0.00 0.00 48 1010.5
20240301104533 36 75 3.0 7.0 0.00 0.00 0.00 48 1010.6
20240301103034 36 84 3.0 11.0 0.00 0.00 0.00 47 1010.8
20240301101527 37 82 2.0 6.0 0.00 0.00 0.00 47 1010.9
20240301100031 37 318 3.0 8.0 0.00 0.00 0.00 46 1010.9
20240301094523 37 83 3.0 10.0 0.00 0.00 0.00 45 1010.9
20240301093030 38 82 3.0 11.0 0.00 0.00 0.00 44 1011.0
20240301091523 38 75 2.0 8.0 0.00 0.00 0.00 44 1011.2
20240301090016 38 129 3.0 8.0 0.00 0.00 0.00 44 1011.3
20240301084514 38 127 3.0 7.0 0.00 0.00 0.00 44 1011.4
20240301083011 38 148 2.0 8.0 0.00 0.00 0.00 43 1011.6
20240301081507 39 86 3.0 9.0 0.00 0.00 0.00 42 1011.8
20240301080015 39 129 3.0 12.0 0.00 0.00 0.00 42 1011.9
20240301074504 39 79 3.0 8.0 0.00 0.00 0.00 41 1011.8
20240301073002 39 148 2.0 8.0 0.00 0.00 0.00 41 1011.9
20240301071558 40 145 2.0 9.0 0.00 0.00 0.00 41 1012.2
20240301070120 40 163 2.0 7.0 0.00 0.00 0.00 41 1012.2
20240301064604 40 177 2.0 7.0 0.00 0.00 0.00 41 1012.2
20240301063051 40 117 2.0 7.0 0.00 0.00 0.00 39 1012.3
20240301061547 40 189 1.0 6.0 0.00 0.00 0.00 39 1012.5
20240301060113 41 87 3.0 8.0 0.00 0.00 0.00 38 1012.7
20240301054543 41 132 3.0 10.0 0.00 0.00 0.00 39 1012.8
20240301053042 41 79 2.0 6.0 0.00 0.00 0.00 40 1012.9
20240301051539 41 67 2.0 6.0 0.00 0.00 0.00 40 1013.0
20240301050038 41 129 2.0 8.0 0.00 0.00 0.00 42 1013.2
20240301044539 39 134 2.0 9.0 0.00 0.00 0.00 44 1013.4
20240301043034 35 82 0.0 3.0 0.00 0.00 0.00 55 1013.5
20240301041533 33 57 0.0 1.0 0.00 0.00 0.00 65 1013.6
20240301040033 33 58 0.0 1.0 0.00 0.00 0.00 66 1013.7
20240301034542 33 58 0.0 1.0 0.00 0.00 0.00 67 1014.0
20240301033032 33 88 0.0 1.0 0.00 0.00 0.00 67 1014.2
20240301031533 33 82 0.0 2.0 0.00 0.00 0.00 68 1014.2
20240301030026 34 46 0.0 2.0 0.00 0.00 0.00 67 1014.3
20240301024537 35 88 0.0 2.0 0.00 0.00 0.00 66 1014.2
20240301023024 35 88 0.0 2.0 0.00 0.00 0.00 67 1014.4
20240301021524 36 200 1.0 3.0 0.00 0.00 0.00 65 1014.6
20240301020033 36 104 0.0 3.0 0.00 0.00 0.00 64 1014.7
20240301014525 36 82 0.0 3.0 0.00 0.00 0.00 64 1014.7
20240301013019 37 86 0.0 2.0 0.00 0.00 0.00 60 1014.8
20240301011519 37 105 1.0 3.0 0.00 0.00 0.00 59 1015.0
20240301010015 38 89 0.0 1.0 0.00 0.00 0.00 59 1015.3
20240301004516 38 79 0.0 2.0 0.00 0.00 0.00 59 1015.3
20240301003021 39 96 0.0 1.0 0.00 0.00 0.00 55 1015.3
20240301001513 40 63 0.0 3.0 0.00 0.00 0.00 53 1015.3
20240301000013 41 91 1.0 4.0 0.00 0.00 0.00 51 1015.4
20240229234526 42 82 1.0 5.0 0.00 0.00 0.00 49 1015.4
20240229233011 43 75 2.0 5.0 0.00 0.00 0.00 48 1015.5
20240229231509 44 85 2.0 5.0 0.00 0.00 0.00 47 1015.6
20240229230010 44 72 2.0 7.0 0.00 0.00 0.00 47 1015.6
20240229224506 45 84 3.0 8.0 0.00 0.00 0.00 45 1015.7
20240229223004 46 70 2.0 6.0 0.00 0.00 0.00 45 1015.9
20240229221502 45 96 2.0 6.0 0.00 0.00 0.00 45 1016.0
20240229220100 44 74 2.0 6.0 0.00 0.00 0.00 49 1016.1
20240229214557 44 86 3.0 6.0 0.00 0.00 0.00 49 1016.3
20240229213054 43 81 1.0 4.0 0.00 0.00 0.00 51 1016.5
20240229211551 43 101 3.0 6.0 0.00 0.00 0.00 50 1016.8
20240229210049 42 115 2.0 6.0 0.00 0.00 0.00 51 1017.2
20240229204550 42 75 3.0 7.0 0.00 0.00 0.00 50 1017.6
20240229203044 41 82 5.0 9.0 0.00 0.00 0.00 50 1017.9
20240229201537 40 84 4.0 7.0 0.00 0.00 0.00 50 1018.3
20240229200033 39 96 3.0 8.0 0.00 0.00 0.00 51 1018.6
20240229194531 38 82 4.0 9.0 0.00 0.00 0.00 54 1018.7
20240229193027 37 117 6.0 11.0 0.00 0.00 0.00 54 1018.9
20240229191523 36 91 5.0 8.0 0.00 0.00 0.00 55 1019.3
20240229190020 35 62 3.0 10.0 0.00 0.00 0.00 55 1019.9
20240229184523 34 98 6.0 11.0 0.00 0.00 0.00 54 1020.1
20240229183018 33 74 3.0 13.0 0.00 0.00 0.00 54 1020.7
20240229181511 32 104 5.0 12.0 0.00 0.00 0.00 54 1021.2
20240229180007 32 105 5.0 10.0 0.00 0.00 0.00 54 1021.6
20240229174504 31 119 5.0 10.0 0.00 0.00 0.00 54 1021.5
20240229173101 30 63 2.0 8.0 0.00 0.00 0.00 56 1022.0
20240229173000 30 70 2.0 10.0 0.00 0.00 0.00 58 1022.0
20240229171602 29 75 3.0 9.0 0.00 0.00 0.00 56 1022.3
20240229170054 28 64 5.0 8.0 0.00 0.00 0.00 57 1022.7
20240229164548 27 79 5.0 10.0 0.00 0.00 0.00 57 1022.8
20240229163045 26 70 4.0 9.0 0.00 0.00 0.00 58 1023.0
20240229161540 25 72 6.0 9.0 0.00 0.00 0.00 58 1023.2
20240229160045 24 79 5.0 10.0 0.00 0.00 0.00 60 1023.5
20240229154532 23 80 5.0 10.0 0.00 0.00 0.00 60 1023.6
20240229153030 22 68 5.0 8.0 0.00 0.00 0.00 61 1024.0
20240229151523 20 81 5.0 9.0 0.00 0.00 0.00 62 1024.1
20240229150020 19 85 4.0 8.0 0.00 0.00 0.00 64 1024.4
20240229144517 18 56 3.0 8.0 0.00 0.00 0.00 65 1024.5
20240229143016 17 70 4.0 8.0 0.00 0.00 0.00 65 1024.7
20240229141512 16 75 3.0 7.0 0.00 0.00 0.00 66 1024.9
20240229140007 15 223 2.0 7.0 0.00 0.00 0.00 67 1025.1